NOAA 2 (ITOS-D)

Satellite information

Favourite Embed

Satellite Type and Status

PAYLOADIN ORBIT

Key statistics

Satellite NOAA 2 (ITOS-D) at a glance.

Uptime

19372

Days in orbit

Revolutions

≈ 12.5

Per day

Orbit

SSO

Sun Synchronous Orbit

Inclination

102.0

Latest

Satellite identification and parameters

Extended collection of information and parameters for NOAA 2 (ITOS-D).

Object identification

Identified? True

Debris? False

Object name: NOAA 2 (ITOS-D)

International designator: 1972-082A

Object number (NORAD): 6235

Object ID (CCSDS): 6235

Country: UNITED STATES OF AMERICA (US)

Current information (Y/N): Y

RCS size: LARGE

Orbital parameters

Period: 114.905 minutes

Inclination: 102.0226 deg

SMA: 7829.249 km

Apoapsis: 1454.119 km

Periapsis: 1448.108 km

RAAN: 312.4906 deg

Eccentricy: 0.00038391

Argument of periapsis: 251.7748 deg

Mean anomaly: 260.5725 deg

Mean motion: 12.53206491 rev/day

Mean motion (dot): -0.00000026 rev/day2

B* drag term: 0.00012980004 1/REarth

Two-line elements (TLE)

Creation date: Oct. 28, 2025, 7:11 p.m.

Reference frame: TEME

Reference center: EARTH

Epoch: Oct. 28, 2025, 1:26 p.m. UTC

TLE line 0: 0 NOAA 2 (ITOS-D)

TLE line 1: 1 06235U 72082A 25301.55996619 -.00000026 00000-0 12980-3 0 9998

TLE line 2: 2 06235 102.0226 312.4906 0003839 251.7748 260.5725 12.53206491425936

Live tracking on map

Real-time ground track for satellite NOAA 2 (ITOS-D).

In-orbit conjunctions

A list of the most updated potential collisions computed for object NOAA 2 (ITOS-D).

Target Orbit TCA Probability of collision Miss distance Type
THORAD DELTA 1 DEB SSO 2024-12-24 19:10:56 0.0001292263 780.0 (m) DEBRIS

Associated space launch

Meteorological satellite using radiometric imaging

NOAA 2 (ITOS-D) was lifted into orbit during the mission ‘Delta 0300 | NOAA 2’, on board a Delta 0300 space rocket.

The launch took place on Oct. 15, 1972, 5:19 p.m. from Space Launch Complex 2W.

For more information about the launch, click the button.

Launch to space Delta 0300 | NOAA 2
Delta 0300 | NOAA 2

Agency: N/A

Status: Launch Successful

Launch date: Oct. 15, 1972, 5:19 p.m. UTC

Rocket: Delta 0300

Launch pad: Space Launch Complex 2W

Location: Vandenberg SFB, CA, USA

...

Latest news about this satellite

There are no fresh news available about this satellite. Check back as we update our databases every day.


Newsletter sign-up

Weekly statistics, charts and insights to help you stay on top of the space industry.